(9859) Van Lierde = 1980 GB1 = 1991 PE5

Discovered at La Silla on 1991-08-03 by E. W. Elst.
(9859) Van Lierde = 1991 PE5

Edmond Van Lierde (1888-1964), a brilliant student at the University of Brussels, later professor of mathematics, promoted modern mathematics and introduced this new discipline into Belgium. He was also a splendid pianist and an excellent tennis player. [Ref: Minor Planet Circ. 45747]

Orbit

Orbit type: Main Belt

Note: WebGL enabled browser required.

epoch2024-03-31.0
epoch JD2460400.5
perihelion date2023-09-06.21008
perihelion JD2460193.71008
argument of perihelion (°)278.01064
ascending node (°)244.53687
inclination (°)1.22290
eccentricity0.0086109
perihelion distance (AU)2.8522715
Tisserand w.r.t. Jupiter3.3
ΔV w.r.t. Earth (km/sec)10.5
semimajor axis (AU)2.8770455
mean anomaly (°)41.76506
mean daily motion (°/day)0.20196860
aphelion distance (AU)2.902
period (years)4.88
P-vector [x]-0.95376234
P-vector [y]0.28348404
P-vector [z]0.09987093
Q-vector [x]-0.29994353
Q-vector [y]-0.87641719
Q-vector [z]-0.37673171
absolute magnitude13.01
phase slope0.15
uncertainty0
referenceMPEC 2024-F62
observations used4793
oppositions28
arc length (days)16046
first opposition used1980
last opposition used2024
residual rms (arc-secs)0.48
perturbers coarse indicatorM-v
perturbers precise indicator003Ek
first observation date used1980-04-14.0
last observation date used2024-03-20.0
computer nameMPCLINUX
JD of orbit computation2456847.782921
perihelion JD uncertainty (days)1.5295E-03
argument of perihelion uncertainty (°)3.6264E-04
ascending node uncertainty (°)1.8794E-04
inclination uncertainty (°)3.3849E-06
eccentricity uncertainty 3.4662E-08
perihelion distance uncertainty (AU)9.7781E-08
Minimum Orbit Intersection Distances (in AU)
for orbit epoch: 2460400.5, reference: E2024-GD4
Mercury2.40946
Venus2.13604
Earth1.85546
Mars1.19206
Jupiter2.05809
Saturn6.17232
Uranus15.589
Neptune26.9326

Observations

4847 total observations over interval: 1980 04 14.02561 – 2024 03 20.033165
These data are available for download (format description).

Date (UT) J2000 RA J2000 Dec Magn Location Ref
1980 04 14.02561 13 18 17.57 -09 38 21.9 18   805 – Santiago-Cerro El Roble MPC 8204
1980 04 15.09505 13 17 26.19 -09 32 55.1   805 – Santiago-Cerro El Roble MPC 8204
1980 04 16.15952 13 16 35.57 -09 27 27.2   805 – Santiago-Cerro El Roble MPC 8204
1991 08 03.09167 21 20 11.42 -13 42 53.5 18.3   809 – European Southern Observatory, La Silla MPC 18758
1991 08 03.10486 21 20 10.73 -13 42 56.0   809 – European Southern Observatory, La Silla MPC 18758
1991 08 03.11806 21 20 10.09 -13 42 59.0   809 – European Southern Observatory, La Silla MPC 18758
1991 08 04.09444 21 19 22.59 -13 46 27.4   809 – European Southern Observatory, La Silla MPC 21065
1991 08 05.25833 21 18 25.35 -13 50 38.1   809 – European Southern Observatory, La Silla MPC 18758
1991 08 05.27153 21 18 24.64 -13 50 40.9   809 – European Southern Observatory, La Silla MPC 18758
1991 08 05.27500 21 18 24.59 -13 50 47.0 17.0   675 – Palomar Mountain MPC 18702
1991 08 05.28472 21 18 23.94 -13 50 43.5   809 – European Southern Observatory, La Silla MPC 18758
1991 08 05.31302 21 18 22.71 -13 50 54.6   675 – Palomar Mountain MPC 18702
1991 08 07.32240 21 16 43.50 -13 58 11.7 17.0   675 – Palomar Mountain MPC 18702
1991 08 07.35069 21 16 42.01 -13 58 18.0   675 – Palomar Mountain MPC 18702
1991 09 04.06875 20 56 07.78 -15 30 19.2   809 – European Southern Observatory, La Silla MPC 19238
1991 09 04.08194 20 56 07.32 -15 30 21.9   809 – European Southern Observatory, La Silla MPC 19238
1991 09 04.09514 20 56 06.92 -15 30 24.2   809 – European Southern Observatory, La Silla MPC 19238
1991 09 05.12847 20 55 32.88 -15 33 02.8   809 – European Southern Observatory, La Silla MPC 20897
1991 09 05.14167 20 55 32.35 -15 33 04.4   809 – European Southern Observatory, La Silla MPC 20897
1991 09 05.15486 20 55 31.87 -15 33 06.7   809 – European Southern Observatory, La Silla MPC 20897
1991 09 06.06389 20 55 03.52 -15 35 22.4 18.6   809 – European Southern Observatory, La Silla MPC 19238
1991 09 06.07708 20 55 02.95 -15 35 24.0   809 – European Southern Observatory, La Silla MPC 19238
1991 09 06.09028 20 55 02.52 -15 35 24.8   809 – European Southern Observatory, La Silla MPC 19238
1991 09 07.05556 20 54 33.05 -15 37 46.2   809 – European Southern Observatory, La Silla MPC 20897
1991 09 07.06875 20 54 32.70 -15 37 47.5   809 – European Southern Observatory, La Silla MPC 20897
1992 10 21.41493 03 20 04.56 +19 02 41.1 17.8   675 – Palomar Mountain MPC 29404
1992 10 21.44306 03 20 03.43 +19 02 36.1   675 – Palomar Mountain MPC 29404
1992 10 28.62014 03 14 37.05 +18 39 54.2 17   399 – Kushiro MPC 21184
1992 10 28.63507 03 14 36.27 +18 39 50.5   399 – Kushiro MPC 21184
1992 11 02.59931 03 10 28.31 +18 21 59.0 16.8   399 – Kushiro MPC 21184
1992 11 02.61389 03 10 27.63 +18 21 58.1   399 – Kushiro MPC 21184
1992 11 26.10016 02 50 36.23 +16 49 22.5   691 – Steward Observatory, Kitt Peak-Spacewatch MPC 21372
1992 11 26.12437 02 50 35.10 +16 49 17.3 17.0 V 691 – Steward Observatory, Kitt Peak-Spacewatch MPC 21373
1992 11 26.14800 02 50 33.95 +16 49 11.7   691 – Steward Observatory, Kitt Peak-Spacewatch MPC 21373
1992 11 27.21007 02 49 46.86 +16 45 15.7 18.0   675 – Palomar Mountain MPC 29404
1992 11 27.24115 02 49 45.44 +16 45 08.6   675 – Palomar Mountain MPC 29404
1994 02 12.31423 09 30 02.57 +12 52 44.1 17.0   675 – Palomar Mountain MPC 24639
1994 02 12.32326 09 30 02.00 +12 52 48.2   675 – Palomar Mountain MPC 30357
1994 02 12.35208 09 30 00.54 +12 52 53.6   675 – Palomar Mountain MPC 24639
1994 02 12.36094 09 29 59.99 +12 52 58.0   675 – Palomar Mountain MPC 30357
1994 02 15.31267 09 27 28.40 +13 05 02.9 17.5   675 – Palomar Mountain MPC 23393
1994 02 15.32135 09 27 28.01 +13 05 04.7 17.2   675 – Palomar Mountain MPC 24979
1994 02 15.34861 09 27 26.49 +13 05 11.5   675 – Palomar Mountain MPC 23393
1994 02 15.35677 09 27 26.12 +13 05 13.5   675 – Palomar Mountain MPC 24979
1995 05 28.17809 15 21 19.84 -18 43 10.4   801 – Oak Ridge Observatory MPC 25290
1995 05 28.19274 15 21 19.12 -18 43 08.0   801 – Oak Ridge Observatory MPC 25290
1995 05 31.15127 15 19 01.82 -18 33 15.6   801 – Oak Ridge Observatory MPC 25290
1995 05 31.17198 15 19 00.87 -18 33 11.4   801 – Oak Ridge Observatory MPC 25290
1995 06 16.20828 15 09 07.69 -17 47 49.3 17.8 V 689 – U.S. Naval Observatory, Flagstaff MPC 25390
1996 07 14.35347 22 21 01.59 -08 30 35.1   809 – European Southern Observatory, La Silla MPS 107697
1996 07 15.37708 22 20 41.51 -08 31 56.4   809 – European Southern Observatory, La Silla MPS 107697
1996 07 15.39028 22 20 41.19 -08 31 58.2   809 – European Southern Observatory, La Silla MPS 107697
1996 07 15.40347 22 20 40.96 -08 31 58.7   809 – European Southern Observatory, La Silla MPS 107697
1997 10 30.30505 04 05 49.476 +21 11 18.31 15.73 J G91 – Whipple Observatory, Mt. Hopkins--2MASS MPS 80609
1997 11 17.81100 03 50 36.72 +20 20 46.9 17.2 V 104 – San Marcello Pistoiese MPS 184
1997 11 17.81447 03 50 36.62 +20 20 45.3   104 – San Marcello Pistoiese MPS 184
1997 11 17.84468 03 50 34.90 +20 20 41.1   104 – San Marcello Pistoiese MPS 184
1997 11 17.85648 03 50 34.27 +20 20 38.0   104 – San Marcello Pistoiese MPS 184
1997 11 29.14498 03 40 23.38 +19 43 42.5   704 – Lincoln Laboratory ETS, New Mexico MPS 273
1997 11 29.17669 03 40 21.65 +19 43 36.4   704 – Lincoln Laboratory ETS, New Mexico MPS 273
1997 11 29.19548 03 40 20.64 +19 43 32.4   704 – Lincoln Laboratory ETS, New Mexico MPS 273
1997 11 29.21418 03 40 19.69 +19 43 28.8   704 – Lincoln Laboratory ETS, New Mexico MPS 273
1997 11 29.23649 03 40 18.46 +19 43 24.4 17.3   704 – Lincoln Laboratory ETS, New Mexico MPS 273
1997 12 04.22338 03 36 04.89 +19 27 15.0 17.4   704 – Lincoln Laboratory ETS, New Mexico MPS 64571
1997 12 04.24741 03 36 03.63 +19 27 09.7 17.4   704 – Lincoln Laboratory ETS, New Mexico MPS 64571
1997 12 04.26394 03 36 02.76 +19 27 07.5 17.4   704 – Lincoln Laboratory ETS, New Mexico MPS 64571
1997 12 04.28054 03 36 01.89 +19 27 05.1 17.7   704 – Lincoln Laboratory ETS, New Mexico MPS 64571
1997 12 04.29946 03 36 00.98 +19 27 01.7 17.7   704 – Lincoln Laboratory ETS, New Mexico MPS 64571
1998 10 29.47352 09 57 42.50 +11 21 30.1 18.1 R 699 – Lowell Observatory-LONEOS MPS 58178
1998 10 29.48843 09 57 43.48 +11 21 24.6   699 – Lowell Observatory-LONEOS MPS 58178
1998 10 29.50333 09 57 44.54 +11 21 18.2   699 – Lowell Observatory-LONEOS MPS 58178
1998 11 25.45729 10 23 44.37 +08 44 19.9 18.6   704 – Lincoln Laboratory ETS, New Mexico MPS 2993
1998 11 25.46781 10 23 44.99 +08 44 16.4 18.4   704 – Lincoln Laboratory ETS, New Mexico MPS 2993
1998 11 25.47841 10 23 45.54 +08 44 11.8 18.2   704 – Lincoln Laboratory ETS, New Mexico MPS 2993
1998 11 25.48898 10 23 45.88 +08 44 07.3 18.2   704 – Lincoln Laboratory ETS, New Mexico MPS 2993
1998 11 25.49953 10 23 46.47 +08 44 07.1 18.2   704 – Lincoln Laboratory ETS, New Mexico MPS 2993
1998 12 17.54244 10 36 43.98 +07 15 49.7 17.3 R 699 – Lowell Observatory-LONEOS MPS 3306
1998 12 17.55265 10 36 44.25 +07 15 47.8   699 – Lowell Observatory-LONEOS MPS 3306
1998 12 17.56285 10 36 44.47 +07 15 45.8   699 – Lowell Observatory-LONEOS MPS 3306
1999 01 18.04632 10 37 23.47 +06 52 53.5 17.6   120 – Visnjan MPS 3765
1999 01 18.07730 10 37 22.77 +06 52 56.0   120 – Visnjan MPS 3765
1999 01 18.11013 10 37 22.05 +06 52 59.2   120 – Visnjan MPS 3765
1999 02 12.33760 10 22 10.46 +08 11 50.0 16.4 R 699 – Lowell Observatory-LONEOS MPS 4082
1999 02 12.36632 10 22 09.07 +08 11 57.4   699 – Lowell Observatory-LONEOS MPS 4082
1999 02 12.36829 10 22 08.86 +08 11 57.0 17.5   704 – Lincoln Laboratory ETS, New Mexico MPS 4082
1999 02 12.38583 10 22 07.94 +08 12 01.4   704 – Lincoln Laboratory ETS, New Mexico MPS 4082
1999 02 12.39184 10 22 07.80 +08 12 04.1   699 – Lowell Observatory-LONEOS MPS 4082
1999 02 12.40331 10 22 07.09 +08 12 06.0   704 – Lincoln Laboratory ETS, New Mexico MPS 4082
